DW7787 Weather Reports


Display with metric or nautical units.
time (UTC)temp
F
wind
direction
speed
MPH
gust
MPH
rain 1hr
in
rain 24hr
in
rain mn
in
humidity
%
barometer
mb
20260904223306 98 205 1.0 2.0 0.00 0.00 0.00 48 1014.8
20260904222808 98 350 1.0 3.0 0.00 0.00 0.00 47 1015.0
20260904222552 98 217 1.0 2.0 0.00 0.00 0.00 48 1015.1
20260904222439 98 232 1.0 3.0 0.00 0.00 0.00 48 1015.0
20260904221305 98 200 1.0 2.0 0.00 0.00 0.00 47 1015.2
20260904220807 98 243 1.0 2.0 0.00 0.00 0.00 48 1015.1
20260904220307 98 36 0.0 2.0 0.00 0.00 0.00 47 1015.2
20260904215810 98 11 1.0 2.0 0.00 0.00 0.00 47 1015.1
20260904215307 98 11 1.0 2.0 0.00 0.00 0.00 48 1015.1
20260904214807 98 132 1.0 3.0 0.00 0.00 0.00 48 1015.2
20260904214305 98 174 1.0 3.0 0.00 0.00 0.00 47 1015.1
20260904213803 98 112 1.0 3.0 0.00 0.00 0.00 46 1015.3
20260904213304 98 126 1.0 3.0 0.00 0.00 0.00 48 1015.1
20260904212806 98 40 1.0 3.0 0.00 0.00 0.00 48 1015.1
20260904212306 97 205 1.0 3.0 0.00 0.00 0.00 49 1015.1
20260904211801 97 104 1.0 3.0 0.00 0.00 0.00 50 1015.0
20260904211300 97 127 2.0 3.0 0.00 0.00 0.00 50 1014.9
20260904210803 96 59 2.0 3.0 0.00 0.00 0.00 50 1014.9
20260904210606 97 113 2.0 4.0 0.00 0.00 0.00 50 1014.8
20260904205757 97 147 2.0 4.0 0.00 0.00 0.00 50 1015.0
20260904205250 97 126 2.0 4.0 0.00 0.00 0.00 51 1015.1
20260904204742 97 127 2.0 5.0 0.00 0.00 0.00 49 1015.1
20260904204236 98 130 2.0 5.0 0.00 0.00 0.00 49 1015.1
20260904203733 98 44 1.0 3.0 0.00 0.00 0.00 50 1015.2
20260904203534 98 157 2.0 3.0 0.00 0.00 0.00 48 1015.3
20260904202737 99 44 1.0 4.0 0.00 0.00 0.00 47 1015.3
20260904202233 99 120 1.0 4.0 0.00 0.00 0.00 47 1015.2
20260904201811 99 132 1.0 3.0 0.00 0.00 0.00 46 1015.3
20260904201806 98 83 2.0 3.0 0.00 0.00 0.00 48 1015.3
20260904201750 99 171 1.0 3.0 0.00 0.00 0.00 47 1015.2
20260904200231 100 185 1.0 3.0 0.00 0.00 0.00 46 1015.4
20260904195733 100 72 1.0 3.0 0.00 0.00 0.00 45 1015.5
20260904195231 100 141 1.0 4.0 0.00 0.00 0.00 46 1015.5
20260904195130 100 246 2.0 4.0 0.00 0.00 0.00 46 1015.7
20260904194230 99 208 2.0 4.0 0.00 0.00 0.00 46 1015.9
20260904193731 99 52 1.0 4.0 0.00 0.00 0.00 47 1016.1
20260904193229 99 350 1.0 3.0 0.00 0.00 0.00 48 1016.3
20260904192732 99 288 1.0 3.0 0.00 0.00 0.00 47 1016.4
20260904192447 100 130 1.0 5.0 0.00 0.00 0.00 47 1016.6
20260904192401 100 27 1.0 2.0 0.00 0.00 0.00 46 1016.5
20260904191551 99 355 2.0 5.0 0.00 0.00 0.00 48 1016.6
20260904190755 98 98 1.0 4.0 0.00 0.00 0.00 50 1016.9
20260904190750 98 169 1.0 3.0 0.00 0.00 0.00 49 1016.8
20260904190738 98 328 2.0 5.0 0.00 0.00 0.00 47 1016.8
20260904185206 98 113 1.0 4.0 0.00 0.00 0.00 49 1016.9
20260904184707 98 61 1.0 3.0 0.00 0.00 0.00 49 1017.0
20260904184551 97 127 1.0 2.0 0.00 0.00 0.00 51 1017.1
20260904183706 97 109 1.0 3.0 0.00 0.00 0.00 50 1017.1
20260904183202 96 128 1.0 3.0 0.00 0.00 0.00 52 1017.2
20260904182700 95 271 1.0 3.0 0.00 0.00 0.00 55 1017.2
20260904182203 94 259 1.0 3.0 0.00 0.00 0.00 53 1017.3
20260904182025 94 351 1.0 3.0 0.00 0.00 0.00 55 1017.4
20260904181201 94 203 1.0 3.0 0.00 0.00 0.00 55 1017.3
20260904180708 94 210 0.0 3.0 0.00 0.00 0.00 56 1017.3
20260904180204 94 20 1.0 4.0 0.00 0.00 0.00 56 1017.4
20260904175707 94 59 1.0 4.0 0.00 0.00 0.00 55 1017.6
20260904175203 94 39 1.0 4.0 0.00 0.00 0.00 55 1017.6
20260904174706 95 182 2.0 7.0 0.00 0.00 0.00 55 1017.7
20260904174202 95 260 2.0 9.0 0.00 0.00 0.00 54 1017.8
20260904173701 96 225 1.0 9.0 0.00 0.00 0.00 53 1017.8
20260904173203 96 355 1.0 3.0 0.00 0.00 0.00 54 1017.8
20260904173014 96 205 1.0 3.0 0.00 0.00 0.00 54 1017.8
20260904172200 96 221 1.0 3.0 0.00 0.00 0.00 54 1017.9
20260904171656 96 212 1.0 3.0 0.00 0.00 0.00 56 1017.9
20260904171151 95 178 1.0 4.0 0.00 0.00 0.00 57 1018.0
20260904170642 94 200 1.0 4.0 0.00 0.00 0.00 58 1018.1
20260904170144 94 138 1.0 4.0 0.00 0.00 0.00 60 1018.1
20260904165641 93 43 2.0 4.0 0.00 0.00 0.00 59 1018.1
20260904165142 93 97 1.0 3.0 0.00 0.00 0.00 59 1018.0
20260904164641 93 148 1.0 4.0 0.00 0.00 0.00 60 1018.1
20260904164145 92 135 1.0 4.0 0.00 0.00 0.00 62 1018.1
20260904163640 91 112 1.0 4.0 0.00 0.00 0.00 62 1018.2
20260904163143 91 11 1.0 4.0 0.00 0.00 0.00 63 1018.4
20260904162641 91 225 1.0 4.0 0.00 0.00 0.00 63 1018.6
20260904162141 90 244 1.0 6.0 0.00 0.00 0.00 63 1018.6
20260904161640 90 207 1.0 6.0 0.00 0.00 0.00 64 1018.7
20260904161143 89 12 1.0 6.0 0.00 0.00 0.00 65 1018.7
20260904161017 89 46 1.0 6.0 0.00 0.00 0.00 67 1018.8
20260904160143 89 205 1.0 4.0 0.00 0.00 0.00 68 1018.8
20260904155639 88 285 1.0 4.0 0.00 0.00 0.00 68 1018.8
20260904155138 88 208 1.0 4.0 0.00 0.00 0.00 68 1018.8
20260904154643 88 209 1.0 4.0 0.00 0.00 0.00 69 1018.9
20260904154140 87 98 1.0 4.0 0.00 0.00 0.00 70 1019.0
20260904153639 87 194 1.0 4.0 0.00 0.00 0.00 70 1019.0
20260904153138 87 276 1.0 3.0 0.00 0.00 0.00 70 1019.1
20260904152640 87 169 1.0 5.0 0.00 0.00 0.00 70 1019.0
20260904152138 86 205 2.0 5.0 0.00 0.00 0.00 71 1019.0
20260904151638 86 209 2.0 4.0 0.00 0.00 0.00 71 1019.0
20260904151141 86 264 2.0 4.0 0.00 0.00 0.00 72 1019.1
20260904151108 85 207 2.0 7.0 0.00 0.00 0.00 73 1019.0
20260904150656 86 236 1.0 3.0 0.00 0.00 0.00 72 1019.0
20260904150248 85 80 1.0 7.0 0.00 0.00 0.00 73 1019.1
20260904145527 85 11 2.0 7.0 0.00 0.00 0.00 74 1019.0
20260904144942 84 186 2.0 7.0 0.00 0.00 0.00 74 1019.1
20260904144138 84 235 1.0 4.0 0.00 0.00 0.00 75 1019.1
20260904143637 84 313 1.0 4.0 0.00 0.00 0.00 75 1019.2
20260904143137 84 5 1.0 4.0 0.00 0.00 0.00 75 1019.2
20260904142638 83 176 1.0 4.0 0.00 0.00 0.00 75 1019.1
20260904142142 83 239 2.0 8.0 0.00 0.00 0.00 76 1018.9
20260904141640 83 341 2.0 9.0 0.00 0.00 0.00 76 1018.9
20260904141142 83 232 1.0 9.0 0.00 0.00 0.00 76 1019.0
20260904140635 82 94 2.0 7.0 0.00 0.00 0.00 78 1018.9
20260904140134 82 85 2.0 7.0 0.00 0.00 0.00 79 1018.8
20260904135947 81 239 1.0 3.0 0.00 0.00 0.00 80 1018.8
20260904135137 81 355 1.0 3.0 0.00 0.00 0.00 81 1018.7
20260904134638 81 331 1.0 3.0 0.00 0.00 0.00 80 1018.8
20260904134137 80 57 1.0 3.0 0.00 0.00 0.00 81 1018.8
20260904133630 80 324 1.0 4.0 0.00 0.00 0.00 82 1018.8
20260904133516 80 66 1.0 4.0 0.00 0.00 0.00 82 1018.8
20260904132630 80 178 1.0 3.0 0.00 0.00 0.00 83 1018.7
20260904132130 79 126 1.0 4.0 0.00 0.00 0.00 84 1018.8
20260904131629 79 219 1.0 4.0 0.00 0.00 0.00 84 1018.8
20260904131130 79 232 1.0 3.0 0.00 0.00 0.00 84 1018.7
20260904130628 78 163 1.0 3.0 0.00 0.00 0.00 85 1018.7
20260904130130 78 246 1.0 4.0 0.00 0.00 0.00 85 1018.7
20260904125630 78 225 1.0 4.0 0.00 0.00 0.00 86 1018.7
20260904125517 78 259 1.0 4.0 0.00 0.00 0.00 86 1018.7
20260904124632 77 215 0.0 3.0 0.00 0.00 0.00 87 1018.7
20260904124131 77 229 0.0 3.0 0.00 0.00 0.00 87 1018.7
20260904123632 77 198 0.0 1.0 0.00 0.00 0.00 87 1018.7
20260904123456 77 92 0.0 2.0 0.00 0.00 0.00 87 1018.7
20260904122631 77 338 0.0 2.0 0.00 0.00 0.00 88 1018.6
20260904122129 77 206 0.0 2.0 0.00 0.00 0.00 88 1018.6
20260904122003 76 103 0.0 2.0 0.00 0.00 0.00 88 1018.6
20260904121130 76 211 1.0 3.0 0.00 0.00 0.00 88 1018.6
20260904120634 76 212 1.0 3.0 0.00 0.00 0.00 88 1018.6
20260904120442 76 212 0.0 3.0 0.00 0.00 0.00 88 1018.7
20260904115626 76 320 0.0 1.0 0.00 0.00 0.00 88 1018.6
20260904115126 76 320 0.0 1.0 0.00 0.00 0.00 88 1018.6
20260904114621 76 320 0.0 1.0 0.00 0.00 0.00 88 1018.6
20260904114120 76 320 0.0 1.0 0.00 0.00 0.00 88 1018.6
20260904113620 76 320 0.0 1.0 0.00 0.00 0.00 88 1018.7
20260904113122 76 320 0.0 1.0 0.00 0.00 0.00 87 1018.6
20260904112616 76 320 0.0 1.0 0.00 0.00 0.00 88 1018.6
20260904112456 76 320 0.0 1.0 0.00 0.00 0.00 88 1018.4
20260904111612 76 320 0.0 3.0 0.00 0.00 0.00 88 1018.3
20260904111111 76 309 0.0 3.0 0.00 0.00 0.00 88 1018.2
20260904110611 76 320 0.0 1.0 0.00 0.00 0.00 88 1018.2
20260904110110 76 0 0.0 3.0 0.00 0.00 0.00 88 1018.1
20260904105615 76 0 0.0 3.0 0.00 0.00 0.00 88 1018.1
20260904105110 76 212 0.0 1.0 0.00 0.00 0.00 88 1018.0
20260904104616 76 212 0.0 1.0 0.00 0.00 0.00 88 1017.9
20260904104435 76 193 0.0 2.0 0.00 0.00 0.00 88 1017.8
20260904103932 76 193 0.0 2.0 0.00 0.00 0.00 88 1017.8
20260904103112 76 193 0.0 1.0 0.00 0.00 0.00 88 1017.8
20260904102612 76 193 0.0 2.0 0.00 0.00 0.00 88 1017.8
20260904102245 76 196 0.0 3.0 0.00 0.00 0.00 88 1017.8
20260904102212 76 193 0.0 2.0 0.00 0.00 0.00 88 1017.7
20260904101050 76 196 0.0 3.0 0.00 0.00 0.00 88 1017.7
20260904100543 76 13 0.0 1.0 0.00 0.00 0.00 87 1017.7
20260904100038 76 13 0.0 1.0 0.00 0.00 0.00 87 1017.7
20260904095533 76 13 0.0 1.0 0.00 0.00 0.00 87 1017.6
20260904095030 76 13 0.0 1.0 0.00 0.00 0.00 87 1017.6
20260904094533 76 13 0.0 1.0 0.00 0.00 0.00 87 1017.7
20260904094354 76 13 0.0 1.0 0.00 0.00 0.00 87 1017.6
20260904093534 76 13 0.0 0.0 0.00 0.00 0.00 87 1017.5
20260904093417 76 13 0.0 0.0 0.00 0.00 0.00 86 1017.5
20260904092759 76 13 0.0 0.0 0.00 0.00 0.00 86 1017.6
20260904092429 76 13 0.0 0.0 0.00 0.00 0.00 86 1017.6
20260904091905 76 13 0.0 0.0 0.00 0.00 0.00 86 1017.5
20260904091420 76 14 0.0 0.0 0.00 0.00 0.00 86 1017.5
20260904090537 76 13 0.0 0.0 0.00 0.00 0.00 86 1017.5
20260904090033 76 13 0.0 0.0 0.00 0.00 0.00 85 1017.4
20260904085531 77 13 0.0 0.0 0.00 0.00 0.00 85 1017.5
20260904085031 77 13 0.0 0.0 0.00 0.00 0.00 85 1017.4
20260904084530 77 13 0.0 0.0 0.00 0.00 0.00 84 1017.5
20260904084030 77 14 0.0 0.0 0.00 0.00 0.00 84 1017.5
20260904083529 77 13 0.0 0.0 0.00 0.00 0.00 84 1017.4
20260904083332 77 13 0.0 0.0 0.00 0.00 0.00 83 1017.3
20260904082528 77 13 0.0 0.0 0.00 0.00 0.00 83 1017.3
20260904082321 77 13 0.0 0.0 0.00 0.00 0.00 83 1017.4
20260904081516 78 13 0.0 0.0 0.00 0.00 0.00 83 1017.4
20260904081326 78 13 0.0 0.0 0.00 0.00 0.00 82 1017.5
20260904080513 78 14 0.0 0.0 0.00 0.00 0.00 82 1017.4
20260904080007 78 13 0.0 0.0 0.00 0.00 0.00 82 1017.3
20260904075506 78 13 0.0 0.0 0.00 0.00 0.00 81 1017.5
20260904075004 78 13 0.0 0.0 0.00 0.00 0.00 81 1017.4
20260904074503 78 13 0.0 0.0 0.00 0.00 0.00 81 1017.5
20260904074323 79 13 0.0 0.0 0.00 0.00 0.00 81 1017.5
20260904073502 79 13 0.0 0.0 0.00 0.00 0.00 80 1017.5
20260904073002 79 13 0.0 0.0 0.00 0.00 0.00 80 1017.5
20260904072501 79 13 0.0 0.0 0.00 0.00 0.00 80 1017.4
20260904072001 79 13 0.0 0.0 0.00 0.00 0.00 79 1017.5
20260904071504 79 13 0.0 0.0 0.00 0.00 0.00 79 1017.4
20260904071001 80 13 0.0 0.0 0.00 0.00 0.00 79 1017.5
20260904070501 80 13 0.0 0.0 0.00 0.00 0.00 79 1017.5
20260904070001 80 14 0.0 0.0 0.00 0.00 0.00 79 1017.5
20260904065504 80 13 0.0 0.0 0.00 0.00 0.00 78 1017.6
20260904065000 80 13 0.0 0.0 0.00 0.00 0.00 78 1017.7
20260904064502 80 13 0.0 0.0 0.00 0.00 0.00 78 1017.7
20260904064004 80 13 0.0 1.0 0.00 0.00 0.00 78 1017.7
20260904063615 80 13 0.0 0.0 0.00 0.00 0.00 77 1017.8
20260904063554 80 13 0.0 1.0 0.00 0.00 0.00 78 1017.8
20260904062502 81 13 0.0 1.0 0.00 0.00 0.00 77 1017.8
20260904062004 81 13 0.0 1.0 0.00 0.00 0.00 77 1017.9
20260904061826 81 13 0.0 0.0 0.00 0.00 0.00 77 1018.0
20260904061000 81 13 0.0 1.0 0.00 0.00 0.00 76 1018.0
20260904060500 81 13 0.0 2.0 0.00 0.00 0.00 76 1018.1
20260904060004 81 13 0.0 2.0 0.00 0.00 0.00 76 1018.1
20260904055815 81 155 0.0 1.0 0.00 0.00 0.00 76 1018.1
20260904055005 81 155 0.0 1.0 0.00 0.00 0.00 76 1018.1
20260904054503 81 155 0.0 1.0 0.00 0.00 0.00 76 1018.2
20260904054322 81 155 0.0 1.0 0.00 0.00 0.00 76 1018.2
20260904053459 81 155 0.0 1.0 0.00 0.00 0.00 76 1018.3
20260904052957 82 156 0.0 1.0 0.00 0.00 0.00 76 1018.2
20260904052454 82 168 0.0 1.0 0.00 0.00 0.00 75 1018.3
20260904052128 82 161 0.0 1.0 0.00 0.00 0.00 76 1018.3
20260904052058 82 121 0.0 1.0 0.00 0.00 0.00 76 1018.4
20260904050954 82 161 0.0 2.0 0.00 0.00 0.00 76 1018.4
20260904050455 82 164 0.0 2.0 0.00 0.00 0.00 76 1018.3
20260904045952 82 164 0.0 1.0 0.00 0.00 0.00 76 1018.4
20260904045450 82 90 0.0 2.0 0.00 0.00 0.00 76 1018.3
20260904044950 82 60 0.0 2.0 0.00 0.00 0.00 76 1018.3
20260904044450 82 9 0.0 0.0 0.00 0.00 0.00 76 1018.4
20260904043950 82 9 0.0 0.0 0.00 0.00 0.00 76 1018.4
20260904043449 82 9 0.0 0.0 0.00 0.00 0.00 76 1018.3
20260904042951 82 9 0.0 1.0 0.00 0.00 0.00 76 1018.2
20260904042449 82 9 0.0 2.0 0.00 0.00 0.00 76 1018.3
20260904042107 82 77 0.0 1.0 0.00 0.00 0.00 76 1018.2
20260904042045 82 9 0.0 2.0 0.00 0.00 0.00 76 1018.3
20260904040949 82 77 0.0 2.0 0.00 0.00 0.00 76 1018.3
20260904040447 81 157 0.0 2.0 0.00 0.00 0.00 76 1018.4
20260904035947 81 132 0.0 0.0 0.00 0.00 0.00 77 1018.3
20260904035450 81 132 0.0 1.0 0.00 0.00 0.00 77 1018.3
20260904034947 81 132 0.0 1.0 0.00 0.00 0.00 78 1018.3
20260904034444 81 132 0.0 1.0 0.00 0.00 0.00 78 1018.3
20260904034307 82 132 0.0 1.0 0.00 0.00 0.00 78 1018.3
20260904033440 82 132 0.0 0.0 0.00 0.00 0.00 79 1018.2
20260904032938 82 132 0.0 0.0 0.00 0.00 0.00 78 1018.4
20260904032635 82 132 0.0 0.0 0.00 0.00 0.00 77 1018.4
20260904032551 82 132 0.0 0.0 0.00 0.00 0.00 78 1018.4
20260904031436 82 132 0.0 0.0 0.00 0.00 0.00 78 1018.6
20260904030938 82 132 0.0 0.0 0.00 0.00 0.00 77 1018.4
20260904030432 82 132 0.0 0.0 0.00 0.00 0.00 76 1018.4
20260904025933 82 132 0.0 0.0 0.00 0.00 0.00 76 1018.4
20260904025429 83 132 0.0 0.0 0.00 0.00 0.00 75 1018.4
20260904024929 83 132 0.0 0.0 0.00 0.00 0.00 75 1018.6
20260904024430 83 132 0.0 0.0 0.00 0.00 0.00 75 1018.6
20260904023933 83 132 0.0 0.0 0.00 0.00 0.00 75 1018.6
20260904023428 83 132 0.0 0.0 0.00 0.00 0.00 75 1018.7
20260904022930 83 132 0.0 0.0 0.00 0.00 0.00 74 1018.8
20260904022430 84 132 0.0 0.0 0.00 0.00 0.00 74 1018.8
20260904021930 84 132 0.0 0.0 0.00 0.00 0.00 73 1018.8
20260904021429 84 132 0.0 0.0 0.00 0.00 0.00 73 1018.8
20260904020930 84 132 0.0 0.0 0.00 0.00 0.00 71 1018.8
20260904020428 84 132 0.0 0.0 0.00 0.00 0.00 71 1018.9
20260904020259 84 132 0.0 0.0 0.00 0.00 0.00 71 1018.8
20260904015429 85 132 0.0 0.0 0.00 0.00 0.00 71 1018.7
20260904014927 85 132 0.0 0.0 0.00 0.00 0.00 71 1018.6
20260904014425 85 132 0.0 0.0 0.00 0.00 0.00 71 1018.4
20260904013927 85 132 0.0 0.0 0.00 0.00 0.00 71 1018.2
20260904013426 85 132 0.0 0.0 0.00 0.00 0.00 69 1018.3
20260904012924 85 132 0.0 0.0 0.00 0.00 0.00 69 1018.3
20260904012424 86 132 0.0 0.0 0.00 0.00 0.00 68 1018.2
20260904011924 86 132 0.0 0.0 0.00 0.00 0.00 68 1018.2
20260904011830 87 132 0.0 0.0 0.00 0.00 0.00 68 1018.0
20260904011454 86 132 0.0 0.0 0.00 0.00 0.00 68 1017.9
20260904011441 86 132 0.0 0.0 0.00 0.00 0.00 68 1018.1
20260904005923 87 132 0.0 0.0 0.00 0.00 0.00 67 1017.9
20260904005426 87 132 0.0 0.0 0.00 0.00 0.00 67 1017.7
20260904004923 87 132 0.0 0.0 0.00 0.00 0.00 67 1017.6
20260904004423 87 132 0.0 0.0 0.00 0.00 0.00 66 1017.6
20260904003920 88 132 0.0 0.0 0.00 0.00 0.00 66 1017.6
20260904003420 88 132 0.0 0.0 0.00 0.00 0.00 65 1017.5
20260904002919 88 132 0.0 0.0 0.00 0.00 0.00 64 1017.4
20260904002421 88 132 0.0 0.0 0.00 0.00 0.00 65 1017.3
20260904002246 89 132 0.0 0.0 0.00 0.00 0.00 65 1017.3
20260904001419 89 132 0.0 0.0 0.00 0.00 0.00 64 1017.2
20260904000921 89 132 0.0 0.0 0.00 0.00 0.00 63 1017.1
20260904000425 89 132 0.0 0.0 0.00 0.00 0.00 63 1017.1
20260903235921 90 132 0.0 0.0 0.00 0.00 0.00 61 1017.0
20260903235423 90 132 0.0 0.0 0.00 0.00 0.00 60 1017.0
20260903234924 90 132 0.0 0.0 0.00 0.00 0.00 60 1016.9
20260903234419 91 132 0.0 0.0 0.00 0.00 0.00 59 1016.9
20260903233923 91 132 0.0 0.0 0.00 0.00 0.00 58 1016.9
20260903233423 91 132 0.0 0.0 0.00 0.00 0.00 58 1016.8
20260903233237 91 132 0.0 0.0 0.00 0.00 0.00 58 1016.8
20260903232421 91 132 0.0 0.0 0.00 0.00 0.00 57 1016.8
20260903232255 91 132 0.0 0.0 0.00 0.00 0.00 58 1016.7
20260903231618 92 132 0.0 2.0 0.00 0.00 0.00 57 1016.8
20260903231532 92 132 0.0 0.0 0.00 0.00 0.00 58 1016.8
20260903230414 92 132 1.0 2.0 0.00 0.00 0.00 57 1016.7
20260903230233 92 132 1.0 2.0 0.00 0.00 0.00 56 1016.7
20260903225414 92 132 1.0 2.0 0.00 0.00 0.00 55 1016.7
20260903224914 92 132 1.0 2.0 0.00 0.00 0.00 56 1016.8
20260903224413 92 132 1.0 2.0 0.00 0.00 0.00 54 1016.7